Temp
17 17 17 17 17 17 18 17 17 17 17 17 17 17 17 17 17 17 17 17 16 16 16 16 16 16 15 15 15 15 15 15
16 16 16 16 16 17 17 17 17 17 17 17 17 17 17 17 17 16 17 17 17 16 16 16 16 16 16 15 15 15 15 15
15 15 15 15 15 17 17 16 16 16 16 17 17 17 17 16 16 16 16 16 16 16 15 15 15 15 15 15 15 15 15 15
14 15 14 13 14 15 16 16 15 15 16 16 16 16 16 16 16 16 16 16 16 16 15 15 15 15 15 15 14 14 14 14
14 13 12 14 13 14 15 15 15 15 15 16 16 16 16 16 16 16 16 16 15 15 15 15 14 14 14 14 14 14 14 13
14 13 13 14 14 13 15 15 15 15 15 15 16 16 16 16 16 16 16 16 15 15 14 14 14 14 14 14 14 13 13 13
14 13 13 13 13 13 13 14 14 15 15 15 15 16 16 16 16 15 15 15 15 14 14 13 13 13 13 13 13 12 12 11
15 14 13 13 13 13 13 13 14 14 14 14 15 15 15 15 15 15 14 14 14 14 14 13 13 13 13 12 12 11 11 11
16 14 13 13 13 13 13 13 13 13 13 13 14 14 15 15 15 14 14 14 14 13 13 13 13 12 12 12 11 11 10 10
16 15 13 13 12 13 12 12 12 12 12 13 13 13 14 14 14 14 13 13 13 13 13 13 13 12 12 11 11 10 10 9
17 14 14 14 12 12 12 12 12 11 11 11 12 13 12 14 13 13 13 13 12 12 12 12 12 12 11 10 10 9 9 9
14 14 13 13 13 12 12 10 10 11 11 11 11 12 12 12 12 12 12 13 12 12 12 12 11 11 10 9 9 8 7 8
14 13 14 13 12 12 11 10 10 10 10 10 10 11 11 12 12 12 12 12 12 11 11 11 11 10 9 8 7 6 6 7
12 12 14 13 12 12 11 11 10 10 10 10 10 10 11 11 11 11 12 12 12 11 11 10 10 9 9 8 7 6 5 5
15 13 14 13 12 11 11 10 9 9 9 10 10 10 9 10 10 10 10 11 11 11 10 10 9 9 9 9 8 7 5 4
13 13 13 12 12 11 12 11 10 9 9 9 9 9 9 9 9 10 10 10 10 10 9 9 9 9 9 9 9 8 7 4
15 11 11 11 12 11 11 10 10 10 9 8 8 8 8 8 9 8 9 9 9 8 9 9 9 9 9 9 8 8 8 7
12 10 10 11 11 11 11 11 10 10 8 8 8 8 8 7 8 8 9 7 8 7 8 8 8 8 8 8 8 8 7 6
13 10 10 10 10 10 10 11 11 10 10 9 8 7 7 7 7 8 8 7 8 6 7 7 7 8 7 8 7 7 6 6
13 11 9 9 9 9 9 10 10 9 9 8 7 7 7 7 7 7 6 7 7 7 6 7 7 6 6 7 6 6 6 5
Height
1492 1494 1498 1502 1505 1507 1509 1511 1512 1513 1515 1517 1520 1523 1524 1525 1526 1526 1527 1528 1528 1528 1529 1530 1530 1531 1531 1531 1530 1530 1530 1530
1490 1491 1494 1497 1500 1503 1506 1509 1511 1512 1514 1515 1517 1520 1522 1524 1525 1526 1526 1527 1527 1528 1527 1528 1528 1529 1530 1530 1530 1529 1529 1529
1487 1490 1492 1494 1497 1499 1502 1506 1509 1511 1513 1513 1515 1517 1520 1523 1524 1526 1527 1527 1526 1526 1526 1526 1527 1527 1527 1529 1529 1528 1528 1528
1484 1487 1490 1493 1495 1496 1498 1501 1504 1507 1509 1511 1513 1515 1518 1520 1521 1523 1525 1526 1527 1525 1526 1526 1525 1526 1526 1527 1528 1528 1528 1528
1479 1481 1485 1489 1491 1493 1496 1497 1501 1504 1507 1509 1510 1513 1516 1518 1519 1519 1522 1523 1525 1526 1525 1525 1525 1525 1526 1526 1526 1527 1528 1528
1475 1478 1481 1483 1487 1489 1491 1494 1497 1500 1503 1506 1508 1509 1513 1515 1517 1518 1519 1520 1521 1523 1525 1526 1525 1524 1525 1525 1525 1526 1526 1525
1468 1472 1475 1478 1482 1485 1487 1490 1492 1496 1499 1502 1504 1506 1509 1512 1514 1517 1518 1519 1520 1520 1522 1525 1525 1525 1524 1524 1524 1523 1523 1523
1462 1465 1470 1474 1476 1481 1484 1488 1490 1492 1494 1498 1502 1503 1505 1508 1511 1514 1516 1518 1518 1519 1520 1522 1524 1525 1524 1523 1523 1522 1522 1522
1454 1460 1464 1466 1471 1477 1481 1485 1487 1489 1491 1494 1496 1500 1501 1504 1508 1510 1513 1516 1517 1518 1518 1520 1521 1524 1524 1523 1522 1522 1522 1523
1448 1454 1457 1463 1464 1469 1474 1479 1484 1486 1489 1492 1494 1497 1498 1500 1504 1507 1511 1514 1515 1515 1517 1518 1519 1520 1522 1522 1522 1522 1522 1523
1438 1445 1450 1455 1460 1465 1469 1473 1476 1481 1486 1489 1492 1494 1496 1496 1500 1503 1508 1510 1513 1514 1515 1516 1517 1518 1519 1520 1521 1521 1521 1522
1432 1437 1444 1449 1454 1460 1465 1469 1472 1476 1480 1483 1487 1490 1493 1495 1496 1499 1503 1507 1509 1512 1513 1514 1515 1516 1517 1519 1519 1519 1520 1520
1421 1425 1431 1438 1442 1447 1453 1457 1463 1469 1474 1479 1483 1485 1488 1491 1493 1496 1500 1502 1506 1509 1510 1512 1513 1514 1515 1517 1517 1518 1518 1518
1415 1416 1421 1426 1432 1439 1445 1449 1457 1464 1470 1474 1478 1481 1484 1487 1490 1493 1496 1499 1501 1505 1507 1508 1510 1511 1512 1514 1515 1517 1516 1516
1398 1403 1409 1417 1424 1431 1436 1446 1454 1457 1459 1463 1468 1475 1479 1483 1487 1489 1494 1496 1498 1501 1503 1505 1506 1508 1509 1511 1511 1510 1512 1514
1390 1394 1400 1409 1413 1419 1422 1429 1437 1444 1449 1455 1461 1468 1473 1479 1483 1486 1491 1493 1496 1499 1500 1501 1503 1505 1506 1507 1508 1508 1508 1512
1380 1388 1393 1401 1407 1411 1416 1426 1434 1437 1443 1451 1456 1464 1469 1473 1477 1482 1486 1489 1493 1496 1497 1499 1499 1501 1502 1503 1504 1505 1506 1508
1377 1378 1382 1391 1398 1401 1409 1417 1424 1430 1438 1443 1449 1456 1464 1469 1473 1479 1482 1488 1488 1494 1494 1496 1497 1498 1500 1501 1501 1503 1503 1504
1370 1372 1371 1377 1382 1390 1399 1408 1417 1425 1431 1433 1441 1448 1456 1462 1468 1472 1478 1484 1485 1491 1493 1494 1494 1496 1498 1499 1499 1500 1501 1501
1363 1364 1366 1369 1372 1378 1390 1398 1408 1417 1423 1428 1431 1441 1449 1457 1463 1469 1475 1479 1482 1487 1492 1492 1492 1494 1495 1496 1497 1498 1499 1498
Wind_Speed
32 32 31 30 28 27 25 24 22 20 19 17 16 14 12 11 9 8 6 4 3 3 2 2 3 4 5 5 5 5 7 8
33 33 33 33 32 30 28 26 22 21 19 18 17 15 13 11 10 8 6 5 4 3 1 1 2 3 4 4 5 6 7 7
33 33 34 34 33 32 29 26 23 21 21 20 18 16 14 13 10 8 7 6 5 4 3 2 1 1 2 3 4 5 5 6
35 34 35 33 32 31 30 28 26 24 23 21 19 18 15 14 12 10 8 7 6 5 4 2 1 1 2 2 3 4 5 5
37 35 35 35 36 34 32 30 27 26 24 23 21 19 16 14 12 11 10 9 7 5 3 2 1 1 1 2 2 3 3 3
39 37 38 39 38 37 35 32 31 29 27 25 23 21 18 16 13 12 12 10 8 6 3 3 3 2 2 2 2 2 1 2
41 41 40 41 40 39 37 34 34 31 29 27 25 22 19 17 15 13 12 11 9 7 5 4 3 2 2 2 2 1 3 3
43 43 42 42 42 40 38 36 35 33 31 29 26 23 21 19 16 15 13 12 10 8 6 5 4 4 4 2 1 2 2 2
46 44 43 42 44 41 38 38 37 36 33 30 28 26 23 20 18 16 15 13 11 9 8 8 6 5 4 3 2 1 0 1
45 46 45 42 44 42 42 40 38 36 32 31 28 27 24 22 19 18 16 14 13 11 10 9 8 6 5 5 4 3 3 1
41 48 48 44 42 42 43 42 41 36 33 31 29 28 25 23 21 19 18 16 13 12 11 9 8 7 7 7 7 6 4 2
44 43 49 46 43 43 44 42 41 37 35 33 31 29 27 24 22 21 19 17 14 12 10 9 8 8 9 9 8 7 4 2
49 46 47 50 50 48 48 48 44 39 37 33 32 30 28 26 24 22 20 18 16 13 11 10 10 11 11 9 8 7 4 4
51 52 48 54 54 50 51 51 46 40 37 34 32 31 29 28 25 22 22 20 17 15 13 12 11 13 10 9 7 8 7 3
53 56 53 54 56 52 52 49 44 43 42 39 36 33 31 28 26 24 21 20 17 16 15 13 12 13 13 9 6 6 9 6
48 54 55 56 59 57 58 58 55 52 47 42 37 35 32 29 26 23 20 18 17 16 15 14 14 12 12 12 11 7 6 6
45 51 55 57 60 61 58 56 54 53 49 42 37 35 33 30 27 25 23 21 18 17 16 15 14 13 11 9 7 6 6 6
44 50 55 57 59 63 59 58 57 55 47 43 40 38 35 31 28 25 22 20 18 17 16 15 13 11 11 8 7 6 5 4
44 49 55 58 61 65 62 60 58 55 50 47 44 41 38 34 29 27 24 21 18 16 15 13 12 12 10 8 7 5 3 2
45 49 55 58 61 64 63 61 58 56 50 46 46 43 38 34 30 25 22 19 18 16 14 12 12 12 10 8 6 5 3 1
Wind_Direction
199 200 202 203 204 203 204 206 204 204 203 202 202 204 204 201 199 200 204 229 242 237 260 286 300 310 317 317 309 299 286 280
203 202 202 203 203 205 206 210 209 205 205 202 202 206 207 204 205 209 220 231 232 232 222 270 319 327 327 331 326 318 307 299
207 208 210 205 204 205 208 207 207 207 205 203 204 205 206 205 209 218 233 229 216 204 203 204 251 304 334 339 338 324 321 317
214 216 215 210 206 206 203 205 208 206 207 205 204 206 207 208 210 217 221 219 217 205 207 224 269 335 1 12 353 339 331 326
217 216 215 209 210 209 208 210 209 208 208 207 208 211 213 213 217 216 214 211 217 220 216 229 244 255 314 328 323 321 322 322
220 216 212 212 215 215 213 210 211 210 208 209 212 212 213 217 221 217 210 209 209 213 224 226 229 248 277 293 304 324 351 353
221 220 218 217 217 218 215 213 213 211 211 211 212 213 214 218 221 217 213 209 206 202 205 222 240 259 274 285 307 18 43 48
226 221 222 220 219 219 219 216 215 213 212 213 215 212 211 216 219 216 216 211 207 200 198 211 236 252 260 276 330 49 46 19
229 224 222 222 221 221 219 219 217 216 213 213 213 215 212 215 218 215 214 213 209 202 201 207 220 235 246 248 243 247 332 43
230 224 223 225 222 218 218 217 217 215 215 217 216 216 213 214 214 213 214 212 208 204 206 209 213 217 224 221 218 214 199 232
236 225 223 223 224 222 220 218 217 215 215 218 219 218 216 214 213 212 213 211 211 207 208 212 210 208 205 202 203 202 210 316
239 232 223 221 222 220 220 217 217 216 219 219 219 220 219 216 211 210 211 210 211 210 209 208 210 207 196 194 195 199 203 321
237 232 222 218 216 215 216 215 213 214 217 218 219 219 218 217 215 211 209 208 209 208 207 204 202 200 193 190 193 201 236 308
235 234 226 218 217 217 217 215 213 215 216 217 220 219 219 217 214 210 208 207 205 204 205 204 203 201 202 208 211 227 233 259
233 232 229 219 215 215 214 213 211 211 212 214 215 216 217 216 213 208 206 202 203 203 203 202 205 210 213 210 204 205 191 222
233 232 230 221 215 214 216 212 208 211 211 210 210 212 214 212 212 207 205 203 202 201 201 204 207 213 208 218 231 218 190 186
238 229 229 223 218 217 217 213 213 215 212 209 208 211 211 209 205 203 201 202 199 199 199 202 204 206 219 214 205 212 210 198
231 227 228 224 220 218 218 214 216 216 209 207 207 208 208 206 204 203 201 201 193 200 198 198 198 199 212 208 209 211 209 196
233 226 223 222 221 219 217 217 221 220 215 210 208 205 203 202 199 197 199 198 192 198 196 194 190 197 196 198 198 197 195 192
234 228 225 222 220 217 214 216 218 218 215 213 209 205 203 198 197 195 193 192 194 195 195 192 195 190 188 187 187 183 172 136